Weather in Ezhantsy

Russia / Sakha (Yakutia) Republic     60°28′47″N   135°09′57″E
temp.,
°C
wind,
m/s
gust,
m/s
humid.,
%
clouds,
%
prec.,
mm/h
press.,
hPa
HPBL,
m
10 may, mon
mon1000:00+6sse226956 0.0 101242
03:00+4sse227557 0.0 101342
06:00+6sse236761 0.0 1013190
09:00+11ssw224939 0.0 1012648
12:00+15s114051 0.0 10111799
15:00+15s113697 0.0 10102194
18:00+14s114382 0.0 10101124
21:00+9ssw226266 0.0 101112
11 may, tue
tue1100:00+7ene116976 0.0 101210
03:00+6se227289 0.0 101219
06:00+8se126874 0.0 1013171
09:00+12sse124972 0.0 1012734
12:00+15ssw123897 0.0 10112130
15:00+15s223795 0.0 10102054
18:00+13nnw2357100 0.2 101092
21:00+10e2472100 0.4 101182
12 may, wed
wed1200:00+8ese2374100 0.1 101153
03:00+7se237673 0.1 101165
06:00+9sse1568100 0.0 1011229
09:00+13sse3546100 0.0 1009937
12:00+15sse3341100 0.0 10082003
15:00+15sse3443100 0.0 10071688
18:00+14ese3751100 0.0 1007339
21:00+10se41059100 0.0 1007268
13 may, thu
thu1300:00+7ese2559100 0.0 1007107
03:00+6ese3862100 0.0 1006196
06:00+8se3959100 0.0 1006408
09:00+11se5845100 0.0 10051027
12:00+14sse5742100 0.0 10031935
15:00+14sse5743100 0.0 10021883
18:00+13se4947100 0.0 1002701
21:00+9ese3762100 0.0 1003131
14 may, fri
fri1400:00+7se2566100 0.0 100499
03:00+6ese3868100 0.0 1004245
06:00+8se376484 0.0 1005320
09:00+11sse2354100 0.0 1005985
12:00+11e2258100 0.0 10051249
15:00+11ne2262100 0.1 1005910
18:00+11nnw1162100 0.0 1005815
21:00+8w1179100 0.1 100613